Theta_e
344 349 353 352 351 351 352 353 352 352 352 352 353 352 351 351 351 350 350 349 349 349 350 350 350 351 351 352 352 352 352 352 353 355 355 356 357 357 359 358 359 357 360
346 348 355 353 352 351 350 351 350 349 350 348 347 347 346 345 345 344 343 342 342 343 342 343 343 344 345 347 347 347 348 348 350 351 352 353 355 356 356 356 359 358 360
346 348 350 350 351 351 353 352 350 349 347 346 345 343 342 342 342 341 341 340 339 339 337 336 336 336 337 338 340 341 342 344 345 347 349 346 349 356 357 358 359 360 359
346 345 346 353 355 354 352 349 347 345 343 341 340 339 339 339 339 339 338 338 338 337 336 335 335 335 334 334 335 336 337 338 340 343 335 338 340 357 356 357 358 357 358
344 344 345 353 352 349 348 345 343 342 340 339 339 338 337 336 336 336 335 335 334 334 334 334 333 334 335 334 334 335 335 336 337 333 324 327 341 355 357 357 358 358 356
343 344 350 350 348 346 344 344 342 340 338 337 337 336 336 335 335 334 334 332 332 332 332 331 332 333 333 334 334 334 334 334 335 321 321 324 334 355 356 356 356 356 356
343 343 345 348 346 345 344 342 341 339 337 336 335 335 335 335 335 334 333 331 331 331 330 331 331 331 332 333 333 334 333 333 324 318 317 317 321 350 357 355 356 354 357
341 340 340 346 346 344 343 341 339 337 336 336 336 335 334 335 333 333 333 331 329 330 330 330 330 330 330 331 332 332 333 334 327 319 319 318 325 352 353 353 355 354 354
340 338 338 338 340 344 343 340 338 337 337 336 336 335 334 333 331 333 333 332 329 329 331 332 331 332 331 332 333 334 335 336 326 322 322 320 332 350 352 350 351 353 354
336 335 333 332 333 332 333 340 339 338 337 336 334 332 332 332 331 333 336 335 331 330 330 331 332 332 332 333 334 336 337 339 325 321 321 318 338 350 349 346 345 345 346
333 331 332 330 328 328 329 334 339 339 338 337 335 334 336 323 323 329 332 336 335 332 331 332 333 334 334 335 336 337 338 326 321 323 318 330 347 344 340 340 340 340 342
330 329 331 330 328 327 332 329 328 329 328 327 328 326 327 322 321 326 332 337 339 336 334 335 336 336 335 324 321 327 320 321 320 318 328 342 343 340 338 338 338 340 342
332 330 330 329 328 326 327 326 326 325 326 325 326 326 324 325 323 327 325 326 329 331 326 328 326 324 324 321 319 315 316 315 314 321 331 339 340 336 335 335 335 336 338
332 330 329 329 327 325 325 325 326 325 325 325 326 326 324 323 322 326 326 325 323 324 320 323 323 321 320 321 317 315 316 316 315 319 326 339 341 337 335 334 333 334 335
334 330 329 328 326 325 324 324 323 325 327 328 328 328 325 322 324 323 323 325 323 322 323 321 320 322 320 317 317 317 317 317 316 315 315 334 342 340 335 334 334 334 334
331 332 332 329 328 328 325 323 323 327 328 327 330 328 324 324 322 324 323 323 322 323 323 322 319 317 319 316 317 318 318 317 317 316 317 317 338 342 339 337 336 336 335
328 330 329 329 326 325 326 325 326 327 327 325 325 325 324 322 322 324 323 322 322 322 321 320 320 321 322 321 318 321 320 318 318 317 316 316 319 335 341 342 339 340 337
328 327 328 333 328 327 326 327 325 325 328 326 325 327 327 325 327 325 325 325 324 323 321 320 320 318 317 318 318 319 318 317 317 317 318 317 317 319 324 340 342 343 339
332 331 329 330 329 328 326 327 326 327 327 327 328 329 329 328 329 326 325 325 323 321 321 319 317 317 316 317 318 321 319 317 318 321 318 319 316 318 316 323 336 341 343
335 332 331 331 330 330 330 327 327 329 328 330 331 331 328 327 328 324 322 320 319 319 318 315 313 313 314 316 319 319 317 316 316 316 317 319 317 316 315 315 317 326 341
333 333 334 330 330 329 328 326 325 323 326 327 329 330 330 327 327 322 315 318 316 314 313 313 311 312 311 313 311 310 312 314 314 316 317 316 317 319 314 314 314 320 329
332 329 325 330 329 330 330 326 324 325 326 325 326 327 327 326 322 317 314 314 313 313 312 311 311 308 309 311 308 305 303 307 311 313 313 314 315 317 316 317 319 322 321
330 329 328 325 326 328 324 323 319 322 323 320 320 320 323 322 320 318 316 313 313 314 312 310 310 308 306 309 310 307 300 302 305 310 312 313 315 315 316 319 318 319 319
329 327 322 322 321 323 321 318 317 318 316 317 317 320 319 321 320 319 318 316 314 314 312 312 312 310 308 306 307 311 308 307 303 303 308 311 314 318 314 317 317 318 317
326 321 318 317 317 317 317 318 320 319 317 319 318 317 316 316 318 318 317 316 315 312 312 312 314 312 308 307 306 305 306 307 308 305 304 306 310 315 315 317 315 315 316
324 321 321 321 319 318 317 321 319 316 316 315 314 315 315 313 313 315 316 314 313 313 315 315 315 313 312 308 307 306 307 305 304 303 303 304 304 311 313 314 316 316 315
Wind_Speed
7 10 15 15 14 13 13 13 13 13 12 12 12 13 12 12 12 11 11 10 10 9 9 8 8 9 8 8 8 7 7 7 7 7 5 3 2 2 4 6 8 8 10
12 9 15 15 15 14 13 13 14 12 12 11 11 11 11 11 11 10 9 9 8 7 7 6 6 6 6 7 7 8 8 8 8 6 4 1 4 3 2 2 11 8 9
12 10 12 16 15 15 14 14 14 13 12 11 11 10 10 11 11 10 9 8 7 6 6 6 5 5 6 7 7 8 8 8 8 7 8 3 3 6 5 6 10 11 10
12 8 8 16 16 15 15 14 13 12 11 10 9 9 9 9 9 8 8 7 6 5 4 4 4 4 5 5 6 7 8 9 9 9 5 4 6 10 8 7 9 11 11
11 8 10 16 15 15 14 13 13 12 11 10 9 9 8 7 7 6 5 4 3 2 2 1 1 3 4 5 5 6 7 9 9 7 6 6 6 9 10 8 9 9 10
12 10 14 17 16 15 14 13 12 12 10 10 9 9 8 7 6 5 3 1 1 1 1 2 2 3 4 4 5 6 8 9 9 4 5 7 7 7 12 11 10 9 8
12 10 11 17 16 15 15 14 12 11 10 10 9 9 9 8 7 6 4 2 1 2 2 1 1 3 4 4 6 7 9 10 6 4 4 5 6 11 11 11 11 8 9
12 9 10 17 17 16 15 14 13 11 11 10 9 9 8 6 5 6 6 4 3 3 3 3 3 5 6 7 9 10 11 11 7 4 5 6 9 11 11 10 10 9 8
12 12 10 10 14 17 16 15 13 12 11 10 9 7 7 6 5 6 7 5 4 5 5 6 7 7 8 10 12 12 13 13 6 4 5 5 13 15 12 9 9 9 9
13 12 9 7 7 7 9 17 15 14 13 12 10 8 6 6 6 8 8 8 6 6 7 8 8 8 8 10 12 14 15 15 5 6 5 4 11 12 10 8 7 6 6
10 10 9 8 7 7 7 10 15 16 14 12 10 10 7 4 5 8 8 11 11 8 8 10 10 9 9 11 14 16 15 3 3 5 3 9 10 9 7 5 4 4 5
14 12 11 10 8 6 8 7 7 6 5 5 5 6 4 4 5 8 10 13 15 12 10 12 12 10 9 3 4 10 3 4 4 4 2 7 7 7 6 5 4 3 4
17 11 13 13 10 10 8 5 3 3 3 3 6 5 5 4 5 4 3 4 5 9 4 7 6 2 5 4 5 4 5 3 2 1 1 5 6 8 9 9 8 7 8
16 16 15 14 12 11 6 6 5 4 3 3 5 6 4 3 5 5 4 4 4 3 5 5 3 5 6 6 6 6 5 4 2 2 5 11 12 12 12 10 9 9 10
14 16 16 14 12 12 7 4 4 5 4 6 6 6 5 4 5 1 3 2 3 2 4 4 4 3 3 5 4 4 5 6 6 3 3 12 14 15 14 12 12 12 12
15 18 15 15 13 13 9 6 6 6 7 5 7 7 8 5 4 3 1 2 3 2 4 2 2 3 4 3 5 6 6 5 6 6 5 5 12 17 16 15 15 16 14
14 16 17 14 10 14 12 9 7 7 5 5 5 5 7 6 6 5 3 3 4 2 2 2 2 2 4 4 5 4 5 6 5 6 5 4 7 15 16 17 17 16 15
11 13 9 7 7 5 6 6 3 3 3 1 4 5 6 7 6 4 3 4 2 3 1 2 2 2 3 3 4 4 4 4 5 5 5 4 5 7 10 15 14 15 14
10 3 4 4 5 7 3 5 3 3 3 3 4 5 6 6 6 4 3 4 3 2 1 2 1 2 2 4 4 3 4 4 5 7 7 7 6 6 5 13 14 13 14
4 5 9 5 2 4 2 1 1 6 5 5 6 5 8 5 4 5 4 4 4 3 3 3 2 1 2 4 4 4 4 4 5 5 7 6 5 7 7 7 5 5 13
10 11 8 9 7 4 3 1 3 2 3 3 6 11 11 6 6 6 4 4 4 4 4 3 1 2 2 1 2 4 3 6 7 7 6 6 7 11 7 6 5 4 5
15 16 14 10 3 3 3 2 2 2 2 5 2 11 12 7 7 4 6 6 6 3 4 4 3 1 2 2 2 0 4 4 4 4 4 3 7 8 6 6 6 6 5
11 10 5 6 6 4 6 4 3 2 1 3 3 4 8 5 4 4 5 2 5 4 5 4 3 4 2 3 4 4 2 3 4 3 6 4 4 5 5 3 3 6 6
7 7 6 4 6 6 7 6 8 4 2 1 2 3 3 6 7 4 5 3 5 4 4 3 3 3 4 4 3 4 4 4 4 6 2 3 4 5 3 4 4 5 5
7 7 6 6 6 3 2 5 3 2 1 3 3 5 6 6 7 5 4 5 5 4 4 5 5 4 3 4 4 2 3 4 6 5 8 4 2 3 3 4 4 5 4
6 6 5 5 2 4 3 3 4 3 4 4 3 2 1 2 1 3 6 5 5 4 3 3 7 6 6 5 4 4 5 4 3 4 4 4 4 5 3 4 3 5 4
Wind_Direction
159 151 153 149 143 136 132 126 119 113 109 113 110 107 101 97 92 87 82 76 72 69 64 59 51 47 41 36 33 38 34 29 43 37 43 67 96 126 143 147 156 126 133
142 149 150 147 144 140 137 131 130 127 121 118 112 109 112 107 103 98 89 81 77 72 66 62 54 40 32 21 18 10 6 6 7 9 355 326 180 181 168 157 141 138 135
143 154 152 152 148 149 146 133 126 125 123 122 121 121 118 117 114 110 104 97 86 74 62 49 41 30 14 4 1 356 349 347 353 348 329 305 234 199 181 148 147 145 144
149 147 149 154 148 140 136 135 132 132 131 128 128 127 122 116 110 110 109 107 103 97 80 55 32 18 14 358 349 345 338 334 342 337 328 306 273 199 185 168 158 152 155
149 148 160 152 147 147 143 140 140 140 141 141 138 135 129 121 117 113 104 98 94 89 88 69 18 349 339 340 338 333 329 327 332 358 333 317 314 172 175 182 171 166 163
154 154 159 158 155 151 149 149 150 149 148 149 148 148 149 144 140 133 122 103 186 190 304 326 329 324 302 299 312 316 318 321 325 350 342 314 328 219 181 180 183 177 186
157 158 159 161 158 158 158 157 156 155 155 156 157 162 165 162 162 161 170 202 185 213 260 252 279 323 312 296 300 306 309 313 322 31 328 299 295 243 186 185 178 179 176
155 158 166 167 165 165 163 162 161 161 161 167 171 175 175 173 176 186 196 202 227 232 253 234 248 273 291 298 301 302 305 308 325 323 293 290 295 225 196 184 175 168 176
165 165 171 169 172 170 169 167 166 167 170 174 178 180 182 185 195 206 218 232 241 242 244 250 263 274 286 295 298 298 300 302 302 287 290 283 296 209 195 186 180 171 174
172 174 169 164 169 172 172 172 174 177 182 187 186 193 197 202 218 231 236 251 250 248 254 261 270 280 287 295 295 298 301 295 301 286 273 258 262 195 188 182 183 170 172
177 177 171 170 171 173 177 182 184 186 189 196 194 205 211 205 233 244 240 249 263 247 255 264 271 278 288 295 301 304 323 285 314 283 258 256 187 176 178 185 193 192 214
182 181 177 177 180 175 191 193 180 192 182 195 198 217 222 217 232 239 235 243 259 248 249 266 271 271 283 288 296 313 318 329 304 314 348 168 171 171 176 188 196 224 250
186 177 181 181 181 186 203 189 184 189 178 202 215 212 230 220 236 227 218 244 236 262 250 269 279 299 291 286 287 286 313 338 305 244 236 188 200 198 203 204 210 223 236
186 186 182 186 180 196 204 189 181 189 193 191 227 226 216 230 243 219 199 223 223 219 266 256 269 263 254 241 247 276 302 295 194 232 217 211 216 221 224 225 227 237 244
192 185 187 180 179 197 200 182 172 194 187 200 213 231 221 214 230 212 197 185 243 300 245 251 241 250 274 248 260 286 293 298 284 232 209 234 218 221 231 238 244 251 256
186 182 181 188 180 191 196 184 198 193 204 200 212 214 202 210 218 217 202 281 284 277 303 291 226 238 255 284 302 290 281 286 264 262 255 244 241 228 231 239 254 263 257
169 167 176 174 165 183 181 174 181 176 171 191 214 229 199 196 208 194 206 254 270 295 330 355 347 343 329 330 306 319 321 293 301 279 259 255 274 262 232 236 248 260 259
157 163 172 157 167 194 177 165 171 136 83 60 186 210 218 211 204 184 216 250 282 291 339 356 352 336 325 330 311 313 292 304 302 304 280 279 255 257 265 251 243 254 249
341 53 60 80 165 200 184 132 172 130 73 20 5 314 266 207 199 184 210 250 246 207 149 237 243 176 287 298 286 295 303 300 298 306 290 291 275 257 247 256 252 238 238
342 45 57 354 142 145 306 267 285 56 51 27 9 334 304 252 191 187 194 209 188 172 199 199 215 36 233 277 299 293 276 283 278 276 273 280 273 257 251 238 244 242 226
127 105 91 226 194 165 226 52 51 69 43 29 4 310 297 255 238 195 188 192 196 191 210 222 190 188 300 235 343 318 295 273 277 268 272 272 278 274 234 230 227 218 227
155 150 168 225 215 180 103 92 132 135 76 247 198 277 285 241 223 193 204 202 205 200 220 236 192 168 242 259 206 338 302 325 291 291 297 288 291 284 241 226 216 185 176
133 144 168 151 139 107 120 134 96 57 96 280 285 281 277 256 292 311 301 249 246 203 226 222 196 166 214 280 221 199 325 257 320 267 287 285 314 317 284 257 226 180 183
133 111 125 133 153 156 181 158 166 173 170 237 257 331 344 38 34 8 6 5 290 271 265 243 213 233 144 233 265 221 226 207 241 311 282 288 284 290 326 297 241 244 204
102 122 132 145 137 135 205 147 153 138 265 309 323 337 5 15 11 22 358 327 296 272 269 293 276 242 219 220 203 244 238 237 236 226 292 307 297 253 245 242 256 253 244
107 123 153 169 129 158 201 151 135 244 257 327 331 241 58 281 358 329 319 318 309 313 323 259 256 256 246 236 233 224 226 216 213 216 249 268 255 289 268 257 254 242 231